Change the Weather History Date:

Monday, April 1, 2013

  Actual Average Record
Temperature  
Mean Temperature 38 °F -  
Max Temperature 46 °F 58 °F 84 °F (2012)
Min Temperature 30 °F 38 °F 25 °F (1961)
Degree Days  
Heating Degree Days 27    
Growing Degree Days 0 (Base 50)    
Moisture  
Dew Point 14 °F    
Average Humidity 41    
Maximum Humidity 64    
Minimum Humidity 13    
Precipitation  
Precipitation 0.00 in - - ()
Sea Level Pressure  
Sea Level Pressure 30.19 in    
Wind  
Wind Speed 11 mph (NNW)    
Max Wind Speed 16 mph    
Max Gust Speed 24 mph    
Visibility 10 miles    
Events      
Averages and records for this station are not official NWS values.
T = Trace of Precipitation, MM = Missing Value Source: NWS Daily Summary

Daily Weather History Graph

Daily Weather History Graph

Search for Another Location

Airport or City:

Trip Planner

Search our weather history database for the weather conditions in past years. The results will help you decide how hot, cold, wet, or windy it might be!

Date:

Astronomy

Apr. 01, 2013 Rise Set
Actual Time 6:48 AM CDT 7:30 PM CDT
Civil Twilight 6:21 AM CDT 7:58 PM CDT
Nautical Twilight 5:48 AM CDT 8:30 PM CDT
Astronomical Twilight 5:15 AM CDT 9:04 PM CDT
Moon 12:39 AM CDT (4/1) 10:35 AM CDT (4/1)
Length of Visible Light 13h 36m
Length of Day
12h 41m
Waning Gibbous, 67% of the Moon is Illuminated
Apr 1
Waning Gibbous
Apr 2
Last Quarter
Apr 10
New
Apr 18
First Quarter
Apr 25
Full

Hourly Weather History & Observations

Time (CDT) Temp. Windchill Dew Point Humidity Pressure Visibility Wind Dir Wind Speed Gust Speed Precip Events Conditions
12:15 AM 42.8 °F 36.2 °F 23.0 °F 46% 30.03 in 10.0 mi NNW 12.7 mph 21.9 mph N/A   Overcast
12:35 AM 42.8 °F 35.8 °F 24.8 °F 49% 30.03 in 10.0 mi NNW 13.8 mph 24.2 mph N/A   Overcast
12:55 AM 41.0 °F 34.3 °F 21.2 °F 45% 30.04 in 10.0 mi NNW 11.5 mph 18.4 mph N/A   Overcast
1:15 AM 39.2 °F 30.5 °F 21.2 °F 49% 30.05 in 10.0 mi NNW 16.1 mph 23.0 mph N/A   Overcast
1:35 AM 39.2 °F 32.0 °F 19.4 °F 45% 30.06 in 10.0 mi NNW 11.5 mph 20.7 mph N/A   Overcast
2:15 AM 39.2 °F 32.5 °F 19.4 °F 45% 30.07 in 10.0 mi NW 10.4 mph 17.3 mph N/A   Overcast
2:35 AM 37.4 °F 30.8 °F 21.2 °F 52% 30.07 in 10.0 mi NW 9.2 mph - N/A   Overcast
3:15 AM 37.4 °F 28.9 °F 21.2 °F 52% 30.08 in 10.0 mi North 13.8 mph 17.3 mph N/A   Overcast
3:35 AM 37.4 °F 28.9 °F 21.2 °F 52% 30.08 in 10.0 mi NNW 13.8 mph 20.7 mph N/A   Overcast
3:55 AM 35.6 °F 27.5 °F 21.2 °F 56% 30.09 in 10.0 mi NNW 11.5 mph 19.6 mph N/A   Overcast
4:15 AM 35.6 °F 27.5 °F 21.2 °F 56% 30.10 in 10.0 mi NNW 11.5 mph 19.6 mph N/A   Overcast
4:35 AM 33.8 °F 24.8 °F 19.4 °F 56% 30.11 in 10.0 mi North 12.7 mph 19.6 mph N/A   Mostly Cloudy
4:55 AM 33.8 °F 27.7 °F 19.4 °F 56% 30.12 in 10.0 mi NNW 6.9 mph - N/A   Scattered Clouds
5:15 AM 32.0 °F 24.2 °F 21.2 °F 64% 30.13 in 10.0 mi NNW 9.2 mph - N/A   Clear
5:35 AM 30.2 °F 21.9 °F 19.4 °F 64% 30.13 in 10.0 mi NNW 9.2 mph - N/A   Clear
5:55 AM 30.2 °F 21.3 °F 19.4 °F 64% 30.14 in 10.0 mi NNW 10.4 mph - N/A   Clear
6:15 AM 30.2 °F 22.6 °F 19.4 °F 64% 30.15 in 10.0 mi NNW 8.1 mph - N/A   Clear
6:35 AM 30.2 °F 22.6 °F 19.4 °F 64% 30.16 in 10.0 mi NNW 8.1 mph - N/A   Clear
7:15 AM 30.2 °F 21.9 °F 19.4 °F 64% 30.18 in 10.0 mi NNW 9.2 mph - N/A   Clear
7:35 AM 30.2 °F 21.3 °F 19.4 °F 64% 30.19 in 10.0 mi NNW 10.4 mph - N/A   Clear
7:55 AM 30.2 °F 21.9 °F 19.4 °F 64% 30.20 in 10.0 mi NNW 9.2 mph 16.1 mph N/A   Clear
8:15 AM 32.0 °F 23.0 °F 19.4 °F 60% 30.21 in 10.0 mi NNW 11.5 mph - N/A   Clear
8:35 AM 32.0 °F 22.5 °F 19.4 °F 60% 30.21 in 10.0 mi NNW 12.7 mph 18.4 mph N/A   Clear
8:55 AM 33.8 °F 26.4 °F 19.4 °F 56% 30.22 in 10.0 mi NW 9.2 mph 18.4 mph N/A   Clear
9:15 AM 33.8 °F 24.8 °F 19.4 °F 56% 30.22 in 10.0 mi NNW 12.7 mph - N/A   Clear
9:35 AM 35.6 °F 27.1 °F 19.4 °F 52% 30.22 in 10.0 mi NW 12.7 mph 17.3 mph N/A   Clear
9:55 AM 35.6 °F 28.0 °F 19.4 °F 52% 30.23 in 10.0 mi NNW 10.4 mph 16.1 mph N/A   Clear
10:15 AM 37.4 °F 30.8 °F 19.4 °F 48% 30.24 in 10.0 mi NW 9.2 mph - N/A   Clear
10:35 AM 37.4 °F 30.8 °F 19.4 °F 48% 30.23 in 10.0 mi NNW 9.2 mph - N/A   Scattered Clouds
10:55 AM 37.4 °F 32.1 °F 17.6 °F 45% 30.23 in 10.0 mi NNW 6.9 mph 17.3 mph N/A   Scattered Clouds
11:15 AM 39.2 °F 31.2 °F 17.6 °F 42% 30.23 in 10.0 mi NW 13.8 mph 20.7 mph N/A   Clear
11:35 AM 39.2 °F 32.5 °F 15.8 °F 39% 30.24 in 10.0 mi NNW 10.4 mph 18.4 mph N/A   Clear
11:55 AM 39.2 °F 31.2 °F 15.8 °F 39% 30.24 in 10.0 mi WNW 13.8 mph 18.4 mph N/A   Clear
12:15 PM 41.0 °F 33.1 °F 14.0 °F 33% 30.24 in 10.0 mi NW 15.0 mph 19.6 mph N/A   Clear
12:35 PM 42.8 °F 37.0 °F 15.8 °F 34% 30.23 in 10.0 mi NNW 10.4 mph 16.1 mph N/A   Clear
12:55 PM 42.8 °F 36.2 °F 14.0 °F 31% 30.23 in 10.0 mi NNW 12.7 mph 20.7 mph N/A   Clear
1:15 PM 42.8 °F 37.0 °F 12.2 °F 29% 30.23 in 10.0 mi NW 10.4 mph 20.7 mph N/A   Clear
1:35 PM 42.8 °F 35.4 °F 10.4 °F 27% 30.22 in 10.0 mi NNW 15.0 mph 18.4 mph N/A   Clear
1:55 PM 44.6 °F 38.4 °F 12.2 °F 27% 30.22 in 10.0 mi WNW 12.7 mph 17.3 mph N/A   Clear
2:15 PM 44.6 °F 39.7 °F 6.8 °F 21% 30.22 in 10.0 mi NNW 9.2 mph 21.9 mph N/A   Clear
2:35 PM 44.6 °F 39.7 °F 8.6 °F 23% 30.22 in 10.0 mi NNW 9.2 mph - N/A   Clear
2:55 PM 44.6 °F 37.8 °F 3.2 °F 18% 30.21 in 10.0 mi NNW 15.0 mph 21.9 mph N/A   Clear
3:15 PM 44.6 °F 38.4 °F 1.4 °F 17% 30.21 in 10.0 mi NNW 12.7 mph 21.9 mph N/A   Clear
3:35 PM 46.4 °F 40.1 °F 1.4 °F 16% 30.21 in 10.0 mi NW 15.0 mph 20.7 mph N/A   Clear
3:55 PM 44.6 °F 39.2 °F -0.4 °F 15% 30.21 in 10.0 mi NNW 10.4 mph 18.4 mph N/A   Clear
4:15 PM 46.4 °F 40.7 °F -2.2 °F 13% 30.21 in 10.0 mi NW 12.7 mph 20.7 mph N/A   Clear
4:35 PM 44.6 °F 40.7 °F 1.4 °F 17% 30.21 in 10.0 mi North 6.9 mph 18.4 mph N/A   Clear
5:15 PM 44.6 °F 38.1 °F -0.4 °F 15% 30.21 in 10.0 mi NNW 13.8 mph 23.0 mph N/A   Clear
5:35 PM 44.6 °F 39.2 °F 1.4 °F 17% 30.21 in 10.0 mi NW 10.4 mph 18.4 mph N/A   Clear
5:55 PM 44.6 °F 38.4 °F 1.4 °F 17% 30.21 in 10.0 mi NNW 12.7 mph 17.3 mph N/A   Clear
6:15 PM 42.8 °F 36.2 °F 1.4 °F 18% 30.22 in 10.0 mi North 12.7 mph 18.4 mph N/A   Clear
6:35 PM 42.8 °F 36.2 °F 3.2 °F 19% 30.22 in 10.0 mi NNW 12.7 mph - N/A   Clear
6:55 PM 42.8 °F 37.0 °F 5.0 °F 21% 30.22 in 10.0 mi North 10.4 mph - N/A   Clear
7:15 PM 41.0 °F 36.4 °F 6.8 °F 24% 30.22 in 10.0 mi NNW 6.9 mph - N/A   Clear
7:35 PM 39.2 °F 35.0 °F 8.6 °F 28% 30.22 in 10.0 mi NNW 5.8 mph - N/A   Clear
7:55 PM 37.4 °F 33.8 °F 10.4 °F 33% 30.22 in 10.0 mi NNW 4.6 mph - N/A   Clear
8:15 PM 37.4 °F 32.8 °F 10.4 °F 33% 30.23 in 10.0 mi NNW 5.8 mph - N/A   Clear
8:35 PM 37.4 °F 33.8 °F 10.4 °F 33% 30.23 in 10.0 mi NNW 4.6 mph - N/A   Clear
8:55 PM 35.6 °F 31.7 °F 12.2 °F 38% 30.24 in 10.0 mi NNW 4.6 mph - N/A   Clear
9:15 PM 35.6 °F 31.7 °F 14.0 °F 41% 30.24 in 10.0 mi NNW 4.6 mph - N/A   Clear
9:35 PM 33.8 °F 30.8 °F 15.8 °F 48% 30.25 in 10.0 mi NW 3.5 mph - N/A   Clear
9:55 PM 35.6 °F 31.7 °F 15.8 °F 44% 30.25 in 10.0 mi NNW 4.6 mph - N/A   Clear
10:15 PM 33.8 °F 29.6 °F 15.8 °F 48% 30.26 in 10.0 mi NNW 4.6 mph - N/A   Clear
10:35 PM 33.8 °F 28.6 °F 15.8 °F 48% 30.26 in 10.0 mi North 5.8 mph - N/A   Clear
10:55 PM 33.8 °F 29.6 °F 15.8 °F 48% 30.26 in 10.0 mi NNW 4.6 mph - N/A   Clear
11:15 PM 32.0 °F 27.5 °F 15.8 °F 51% 30.27 in 10.0 mi NNW 4.6 mph - N/A   Clear
11:35 PM 32.0 °F 28.7 °F 15.8 °F 51% 30.28 in 10.0 mi NNW 3.5 mph - N/A   Clear
11:55 PM 32.0 °F 28.7 °F 17.6 °F 55% 30.28 in 10.0 mi NNW 3.5 mph - N/A   Clear